www.pogodaiklimat.ru
ПОГОДА в Куопио Савилахти
Время
(UTC), дата
01 9.11
02 9.11
03 9.11
04 9.11
05 9.11
06 9.11
07 9.11
08 9.11
09 9.11
10 9.11
11 9.11
12 9.11
13 9.11
14 9.11
15 9.11
16 9.11
17 9.11
18 9.11
19 9.11
20 9.11
21 9.11
22 9.11
23 9.11
00 10.11
01 10.11
02 10.11
03 10.11
04 10.11
05 10.11
06 10.11
07 10.11
08 10.11
09 10.11
10 10.11
11 10.11
12 10.11
13 10.11
14 10.11
15 10.11
16 10.11
17 10.11
18 10.11
19 10.11
20 10.11
21 10.11
22 10.11
23 10.11
00 11.11
01 11.11
02 11.11
03 11.11
04 11.11
05 11.11
06 11.11
07 11.11
08 11.11
09 11.11
10 11.11
11 11.11
12 11.11
13 11.11
14 11.11
15 11.11
16 11.11
17 11.11
18 11.11
19 11.11
20 11.11
21 11.11
22 11.11
23 11.11
00 12.11
01 12.11
02 12.11
03 12.11
04 12.11
05 12.11
06 12.11
07 12.11
08 12.11
09 12.11
10 12.11
11 12.11
12 12.11
13 12.11
14 12.11
15 12.11
16 12.11
17 12.11
18 12.11
19 12.11
20 12.11
21 12.11
22 12.11
23 12.11
00 13.11
01 13.11
02 13.11
03 13.11
04 13.11
05 13.11
06 13.11
07 13.11
08 13.11
09 13.11
10 13.11
11 13.11
12 13.11
13 13.11
14 13.11
15 13.11
17 13.11
18 13.11
19 13.11
20 13.11
21 13.11
00 14.11
01 14.11
02 14.11
03 14.11
04 14.11
05 14.11
06 14.11
07 14.11
08 14.11
09 14.11
10 14.11
11 14.11
12 14.11
13 14.11
14 14.11
15 14.11
16 14.11
17 14.11
18 14.11
19 14.11
20 14.11
21 14.11
22 14.11
23 14.11
00 15.11
01 15.11
02 15.11
03 15.11
04 15.11
05 15.11
06 15.11
07 15.11
08 15.11
09 15.11
10 15.11
11 15.11
12 15.11
13 15.11
14 15.11
15 15.11
16 15.11
17 15.11
18 15.11
19 15.11
20 15.11
21 15.11
22 15.11
23 15.11
00 16.11
Ветер
(напр.,м/с)
Видим. Явления Облачность Т
(С)
Тd
(С)
f
(%)
Тe
(С)
Тes
(С)
Комфортность P
(гПа)
Po
(гПа)
Тmin
(С)
Tmax
(С)
R
(мм)
R24
(мм)
S
(см)
В 3-5
{6}
1700 м слаб. снег 9/9 100 м
[]
-2.3 -3.1 94 -8 -8 очень
холодно
1019.2 1008.4 1
ЮВ 4-7
{7}
2000 м слаб. снег 10/10 100 м
[]
-1.9 -2.7 94 -8 -8 очень
холодно
1018.7 1007.9 0.6
ЮВ 4-7
{9}
1000 м слаб. снег 10/10 100 м
[]
-1.9 -2.6 95 -8 -8 очень
холодно
1017.7 1007.0 2
ЮВ 3-7
{8}
2900 м слаб. снег 10/10 100 м
[]
-1.4 -2.2 94 -7 -7 холодно 1017.2 1006.5 1
ЮВ 3-6
{8}
25 км слаб. снег 9/9 100 м
[]
-1.1 -2.0 94 -6 -6 холодно 1016.7 1006.0 1
ЮВ 3-7
{7}
19 км переохл. дождь (гололёд) {снег} 10/0 100 м
[]
-0.6 -1.4 94 -6 -6 холодно 1016.6 1005.9 -2.8 -0.6 0.2 12
ЮВ 3-6
{7}
10 км слаб. ледяной дождь 10/0 100 м
[]
-0.2 -0.8 96 -5 -5 холодно 1016.3 1005.6 0.1
ЮВ 3-6
{7}
5000 м слаб. дождь 10/10 50 м
[]
+0.4 -0.2 96 -4 -4 прохладно 1016.3 1005.7 0.5
ЮВ 2-4
{6}
13 км слаб. морось {дождь} 10/0 50 м
[]
+0.7 +0.2 96 -3 -3 прохладно 1016.3 1005.6 0.3
ЮВ 3-5
{5}
10 км морось 10/0 100 м
[]
+1.1 +0.5 96 -4 -3 прохладно 1015.8 1005.1 0.1
ЮВ 2-4
{5}
9000 м слаб. ливневой дождь 10/10 100 м
[]
+1.3 +0.6 95 -2 -2 по сезону 1015.5 1004.9 0.1
ЮВ 2-5
{5}
9000 м в посл. час дождь со снегом {ливн. осадки} 10/0 50 м
[]
+1.4 +0.9 96 -2 -2 по сезону 1014.9 1004.3 0.1
ЮВ 2-4
{5}
9000 м дымка 10/0 50 м
[]
+1.5 +1.0 96 -2 -2 по сезону 1014.6 1004.0
ЮВ 2-4
{4}
5000 м дымка 10/0 50 м
[]
+1.8 +1.4 97 -2 -2 по сезону 1014.1 1003.5
ЮВ 2-4
{4}
5000 м слаб. ливневой дождь {туман} 10/0 50 м
[]
+2.1 +1.8 98 -1 -1 по сезону 1013.7 1003.1
ЮВ 2-4
{5}
5000 м слаб. дождь 10/0 50 м
[]
+1.9 +1.6 98 -2 -2 по сезону 1013.2 1002.7 0.2
ЮВ 3-4
{5}
5000 м дымка 10/0 50 м
[]
+1.8 +1.5 98 -3 -3 прохладно 1012.9 1002.3
ЮВ 2-4
{6}
3400 м слаб. дождь 9/0 50 м
[]
+1.7 +1.4 98 -2 -2 по сезону 1012.7 1002.1 -0.6 +2.1 0.1
В 2-3
{4}
4000 м в посл. час дождь 10/0 50 м
[]
+1.7 +1.4 98 -2 -2 по сезону 1012.5 1002.0 0.2
В 2-4
{4}
1200 м в посл. час морось 10/0 50 м
[]
+1.6 +1.4 99 -2 -2 по сезону 1012.0 1001.5
В 2-3
{4}
4200 м дымка {ливн. осадки, дождь} 10/0 50 м
[]
+1.6 +1.4 99 -2 -2 по сезону 1011.8 1001.3
В 2-4
{4}
4600 м дымка 10/0 50 м
[]
+1.6 +1.4 99 -2 -2 по сезону 1011.6 1001.0
В 2-3
{4}
2200 м слаб. ливневой дождь 10/0 50 м
[]
+1.5 +1.3 99 -2 -2 по сезону 1011.2 1000.7
В 1-3
{4}
1500 м дымка {ливн. осадки, дождь} 10/0 50 м
[]
+1.5 +1.3 99 -1 -1 по сезону 1011.0 1000.4
В 1-2
{3}
1000 м слаб. ливневой дождь 10/0 50 м
[]
+1.5 +1.4 99 -1 -1 по сезону 1010.9 1000.4 0.1
В 1-2
{3}
5000 м слаб. дождь 10/0 50 м
[]
+1.1 +1.0 99 -1 -1 по сезону 1010.8 1000.2 0.4
В 1-3
{3}
14 км слаб. дождь 10/10 50 м
[]
+0.8 +0.7 99 -1 -1 по сезону 1010.7 1000.2 0.4
В 2-3
{3}
8000 м слаб. дождь 10/10 50 м
[]
+0.8 +0.6 99 -3 -3 прохладно 1010.2 999.7 0.3
В 1-2
{4}
12 км слаб. дождь 9/0 50 м
[]
+0.7 +0.4 98 -1 -1 по сезону 1010.3 999.7 0.2
В 1-2
{2}
14 км слаб. дождь 9/0 100 м
[]
+0.8 +0.6 99 -1 -1 по сезону 1010.1 999.5 +0.7 +1.8 0.3 8
В 2-3
{3}
21 км слаб. дождь 9/9 100 м
[]
+0.9 +0.7 99 -3 -3 прохладно 1009.9 999.3 0.2
В 2-3
{3}
7000 м слаб. дождь со снегом 9/9 50 м
[]
+0.9 +0.6 98 -3 -3 прохладно 1009.9 999.4 0.5
В 2-4
{4}
15 км переохл. дождь (гололёд) {снег} 9/9 50 м
[]
+1.0 +0.5 96 -3 -3 прохладно 1009.8 999.3 0.8
В 2-4
{4}
4900 м слаб. ливневой дождь 9/9 50 м
[]
+1.0 +0.6 97 -3 -3 прохладно 1009.6 999.0 0.2
В 2-4
{5}
5000 м слаб. дождь 9/9 50 м
[]
+1.1 +0.7 97 -3 -3 прохладно 1008.9 998.4 0.2
В 2-3
{5}
3300 м слаб. дождь 9/9 50 м
[]
+1.1 +0.8 98 -3 -3 прохладно 1008.8 998.2 0.1
СВ 3-5
{5}
11 км слаб. дождь 9/0 50 м
[]
+1.2 +0.8 97 -3 -3 прохладно 1008.2 997.7 0.1
В 3-5
{5}
40 км в посл. час дождь 9/0 50 м
[]
+1.2 +0.8 97 -3 -3 прохладно 1007.7 997.2 0.1
СВ 3-4
{5}
8000 м переохл. дождь (гололёд) 9/0 100 м
[]
+1.1 +0.6 96 -4 -4 прохладно 1007.5 996.9 0.1
СВ 3-4
{5}
6000 м слаб. ледяной дождь 9/0 100 м
[]
+1.0 +0.5 96 -4 -4 прохладно 1007.0 996.5 0.5
СВ 2-6
{6}
4600 м слаб. снег 9/0 100 м
[]
+0.9 +0.4 96 -3 -3 прохладно 1006.8 996.2 0.3
С 2-3
{5}
900 м слаб. снег ?/? +0.5 +0.1 97 -3 -3 прохладно 1006.6 996.1 +0.4 +1.2 2
СЗ 2-3
{4}
800 м снег 9/9 50 м
[]
+0.2 0.0 99 -4 -4 прохладно 1007.0 996.4 4
СЗ 2-4
{4}
2200 м слаб. снег 9/9 100 м
[]
+0.3 0.0 98 -4 -4 прохладно 1006.7 996.2 3
СЗ 1-2
{4}
6000 м слаб. снег 9/9 100 м
[]
+0.3 0.0 98 -2 -2 по сезону 1007.0 996.5 0.4
СЗ 2-4
{4}
16 км снежные зёрна 9/9 100 м
[]
+0.2 -0.2 97 -4 -4 прохладно 1007.3 996.7 0.1
СЗ 2-3
{4}
11 км в посл. час осадки 9/0 100 м
[]
+0.1 -0.4 96 -4 -4 прохладно 1007.4 996.8
СЗ 2-3
{4}
2600 м дымка {ливн. осадки, снег} 9/9 100 м
[]
-0.2 -0.5 98 -4 -4 прохладно 1007.7 997.1
С 2-3
{3}
7000 м дымка 9/9 100 м
[]
-0.3 -0.6 98 -4 -4 прохладно 1007.8 997.2
СЗ 2-3
{4}
7000 м дымка 9/9 100 м
[]
-0.5 -0.8 98 -4 -4 прохладно 1007.9 997.3
С 2-5
{5}
12 км 9/9 100 м
[]
-0.5 -1.0 96 -4 -4 прохладно 1008.3 997.7
С 2-4
{4}
7000 м дымка 9/0 100 м
[]
-0.6 -1.0 97 -5 -5 холодно 1008.4 997.8
С 2-3
{4}
18 км 9/0 100 м
[]
-0.7 -1.1 97 -5 -5 холодно 1008.7 998.1
С 2-3
{4}
6000 м дымка 9/9 100 м
[]
-0.8 -1.2 97 -5 -5 холодно 1008.7 998.1 -0.8 +0.5 12
СЗ 2-3
{4}
6000 м дымка 9/9 50 м
[]
-0.8 -1.2 97 -5 -5 холодно 1008.8 998.2
СЗ 2-3
{3}
14 км 9/0 100 м
[]
-0.7 -1.1 97 -5 -5 холодно 1009.0 998.4
С 2-3
{4}
12 км 9/0 100 м
[]
-0.5 -1.0 96 -4 -4 прохладно 1009.2 998.5
С 2-3
{4}
3800 м дымка 9/9 50 м
[]
-0.6 -1.0 97 -5 -5 холодно 1009.2 998.5
СЗ 2-3
{4}
5000 м дымка 9/9 50 м
[]
-0.7 -1.1 97 -5 -5 холодно 1009.1 998.5
СЗ 2-3
{4}
9000 м в посл. час дождь {ливн. осадки, туман} 10/10 50 м
[]
-0.7 -1.1 97 -5 -5 холодно 1009.1 998.4
СЗ 2-3
{4}
16 км осадки 10/10 100 м
[]
-0.9 -1.3 97 -5 -5 холодно 1008.9 998.3
СЗ 2-4
{4}
22 км 10/10 100 м
[]
-0.8 -1.3 96 -5 -5 холодно 1009.1 998.5
СЗ 2-5
{5}
30 км {ливн. осадки, дождь} 10/0 100 м
[]
-0.9 -1.4 96 -5 -5 холодно 1009.2 998.5
СЗ 3-6
{6}
35 км 10/10 100 м
[]
-1.1 -1.6 96 -6 -6 холодно 1009.1 998.5
СЗ 2-4
{5}
26 км слаб. дождь со снегом 10/10 100 м
[]
-1.2 -1.8 96 -5 -5 холодно 1009.4 998.8
СЗ 2-5
{5}
40 км в посл. час переохл. осадки (гололёд) 10/10 100 м
[]
-1.3 -2.0 95 -5 -5 холодно 1009.6 998.9 -1.3 -0.5
СЗ 3-6
{7}
50 км 10/0 100 м
[]
-1.7 -2.5 94 -7 -7 холодно 1009.9 999.3
З 2-5
{6}
12 км осадки 10/10 100 м
[]
-1.9 -2.6 95 -6 -6 холодно 1010.3 999.6
СЗ 2-4
{6}
1900 м слаб. снег {туман} 10/10 100 м
[]
-2.2 -3.0 94 -6 -6 холодно 1010.6 999.9 0.1
СЗ 3-5
{5}
8000 м слаб. снег 10/10 200 м
[]
-2.3 -3.2 94 -8 -8 очень
холодно
1011.1 1000.4 0.1
З 2-4
{5}
2900 м слаб. снег 10/10 100 м
[]
-2.3 -3.2 94 -6 -6 холодно 1011.6 1000.8 0.1
З 2-5
{7}
6000 м снежные зёрна {дождь} 10/10 200 м
[]
-2.8 -3.8 93 -7 -7 холодно 1012.0 1001.2 0.1
СЗ 3-6
{6}
13 км слаб. снег 10/10 200 м
[]
-3.0 -4.0 93 -8 -8 очень
холодно
1012.8 1002.0
З 2-4
{4}
6000 м снежные зёрна 10/0 100 м
[]
-3.3 -4.1 94 -8 -8 очень
холодно
1013.4 1002.6
З 2-4
{6}
9000 м слаб. ливневой снег 10/10 100 м
[]
-3.7 -4.5 94 -8 -8 очень
холодно
1014.3 1003.5
СЗ 2-4
{5}
17 км в посл. час снег 10/0 100 м
[]
-3.8 -4.4 96 -8 -8 очень
холодно
1014.8 1004.0
З 3-5
{5}
20 км в посл. час снег 10/0 100 м
[]
-4.2 -4.9 95 -10 -10 очень
холодно
1015.2 1004.4
З 2-4
{5}
12 км слаб. снег 10/10 50 м
[]
-4.0 -4.6 96 -8 -8 очень
холодно
1015.8 1005.0 -4.2 -1.3 12
ЮЗ 2 19 км слаб. ливневой снег 10/10 100 м
[]
-3.9 -4.7 94 -8 -8 очень
холодно
1016.6 1005.7
З 2-4
{5}
24 км в посл. час снег 10/0 100 м
[]
-3.9 -4.7 94 -8 -8 очень
холодно
1017.2 1006.4
ЮЗ 2-4
{4}
35 км слаб. ливневой снег 10/0 100 м
[]
-3.5 -4.5 93 -8 -8 очень
холодно
1018.2 1007.3
СЗ 1-1
{3}
11 км слаб. ливневой снег 10/0 100 м
[]
-3.4 -4.4 93 -6 -6 холодно 1018.4 1007.6
Ю 2-3
{3}
24 км в посл. час снег 10/10 100 м
[]
-3.0 -4.1 92 -7 -7 холодно 1018.9 1008.1
ЮВ 1-3
{3}
40 км слаб. ливневой снег 10/0 100 м
[]
-2.9 -4.0 92 -5 -5 холодно 1018.9 1008.1
Ю 2-4
{4}
40 км 10/0 100 м
[]
-2.7 -3.7 93 -7 -7 холодно 1019.5 1008.7
ЮВ 2-3
{4}
50 км 10/10 100 м
[]
-2.9 -3.9 93 -7 -7 холодно 1019.8 1008.9
ЮВ 2-4
{4}
50 км {ливн. осадки} 10/10 100 м
[]
-2.5 -3.4 94 -7 -7 холодно 1019.7 1008.9
ЮВ 2-4
{6}
50 км 10/10 100 м
[]
-2.2 -3.1 94 -6 -6 холодно 1019.7 1008.9
ЮВ 2-6
{6}
3700 м дымка 10/0 50 м
[]
-2.2 -2.7 96 -6 -6 холодно 1019.2 1008.4
ЮВ 3-6
{6}
5000 м дымка {ливн. осадки} 10/0 50 м
[]
-2.0 -2.5 96 -7 -7 холодно 1019.3 1008.5 -4.1 -2.0
ЮВ 3-6
{7}
6000 м дымка 10/0 50 м
[]
-1.9 -2.4 96 -7 -7 холодно 1019.2 1008.4
ЮВ 3-6
{7}
9000 м дымка 10/0 50 м
[]
-1.7 -2.1 97 -7 -7 холодно 1018.8 1008.0
ЮВ 5-8
{8}
24 км 10/10 50 м
[]
-1.5 -2.1 96 -8 -8 очень
холодно
1018.3 1007.5
В 4-8
{8}
1400 м слаб. снег 10/10 100 м
[]
-1.9 -2.7 94 -8 -8 очень
холодно
1016.7 1005.9 0.7
ЮВ 3-9
{9}
3800 м слаб. снег 10/10 100 м
[]
-1.8 -2.8 93 -7 -7 холодно 1016.6 1005.8 0.5
ЮВ 3-9
{9}
900 м снег {туман} 10/10 100 м
[]
-1.3 -2.1 94 -6 -6 холодно 1015.3 1004.6 1
ЮВ 3-8
{8}
1600 м слаб. снег 10/10 100 м
[]
-0.8 -1.5 95 -6 -6 холодно 1014.5 1003.8 2
ЮВ 4-7
{9}
4800 м слаб. ледяной дождь 10/10 100 м
[]
-0.1 -0.9 94 -6 -6 холодно 1013.5 1002.8 1
ЮВ 3-5
{8}
1600 м слаб. снег 10/10 50 м
[]
+0.4 -0.2 96 -4 -4 прохладно 1013.0 1002.3 0.7
ЮВ 2-5
{8}
8000 м слаб. дождь со снегом 10/10 100 м
[]
+0.8 +0.2 96 -3 -3 прохладно 1012.6 1002.0 0.4
ЮВ 3-7
{7}
7000 м слаб. дождь 10/10 100 м
[]
+1.1 +0.5 96 -4 -4 прохладно 1012.4 1001.8 0.4
ЮВ 3-6
{6}
4100 м слаб. дождь 10/0 50 м
[]
+1.2 +0.8 97 -3 -3 прохладно 1012.3 1001.8 -2.1 +1.2 0.6 18
ЮВ 3-5
{6}
7000 м морось 10/0 50 м
[]
+1.3 +0.8 96 -3 -3 прохладно 1012.4 1001.8 0.6
ЮВ 2-4
{6}
9000 м слаб. дождь 10/10 50 м
[]
+1.6 +1.1 96 -2 -2 по сезону 1012.2 1001.6 0.3
ЮВ 2-5
{6}
20 км слаб. дождь {морось} 10/10 100 м
[]
+1.8 +1.1 95 -2 -2 по сезону 1012.0 1001.4 0.4
ЮВ 3-6
{6}
24 км слаб. морось 10/0 100 м
[]
+1.8 +1.2 96 -3 -3 прохладно 1011.5 1001.0 0.1
ЮВ 2-5
{5}
2900 м слаб. дождь 10/0 50 м
[]
+1.8 +1.5 98 -2 -2 по сезону 1011.2 1000.7 0.1
ЮВ 2-5
{5}
6000 м слаб. дождь {морось} 10/10 50 м
[]
+2.1 +1.6 96 -1 -1 по сезону 1010.9 1000.3 0.7
ЮВ 2-5
{5}
14 км морось 10/10 100 м
[]
+2.2 +1.7 96 -1 -1 по сезону 1010.6 1000.1 0.8
ЮВ 3-4
{6}
4400 м дождь 10/10 50 м
[]
+2.2 +1.8 97 -2 -2 по сезону 1010.3 999.8 0.7
ЮВ 3-5
{7}
12 км слаб. дождь {морось} 10/10 100 м
[]
+2.3 +1.8 96 -2 -2 по сезону 1009.2 998.7 0.9
ЮВ 3-5
{7}
30 км слаб. дождь 10/10 100 м
[]
+2.6 +2.0 96 -2 -2 по сезону 1008.3 997.8 0.4
ЮВ 3-5
{6}
7000 м слаб. дождь {морось} 10/10 100 м
[]
+2.6 +2.2 97 -2 -2 по сезону 1007.5 997.0 +1.2 +2.6 0.6
ЮВ 2-4
{5}
4900 м дождь 10/10 100 м
[]
+2.7 +2.3 97 -1 -1 по сезону 1007.3 996.8 0.9
ЮВ 2-3
{5}
8000 м слаб. дождь 10/10 50 м
[]
+2.8 +2.4 97 -1 -1 по сезону 1006.8 996.3 1
ЮВ 2-4
{4}
11 км дождь 10/10 50 м
[]
+3.0 +2.6 97 -0 -0 по сезону 1006.7 996.2 1
ЮВ 2-4
{5}
14 км слаб. ливневой дождь 10/0 100 м
[]
+3.3 +2.9 97 0 0 по сезону 1006.1 995.6
ЮВ 2-3
{5}
13 км слаб. морось 10/0 50 м
[]
+3.4 +3.1 98 0 0 по сезону 1005.9 995.5
ЮВ 2-5
{5}
1500 м дымка 10/0 50 м
[]
+3.4 +3.2 99 0 0 по сезону 1005.8 995.3
ЮВ 2-3
{5}
700 м сильная пыльная буря {ливн. осадки, морось} 10/0 50 м
[]
+3.6 +3.4 99 0 0 по сезону 1005.8 995.4
ЮВ 2-3
{4}
700 м осадки 10/0 50 м
[]
+3.5 +3.4 99 0 0 по сезону 1006.2 995.8
ЮВ 2-3
{3}
1300 м в посл. час дождь 10/0 50 м
[]
+3.6 +3.5 99 0 0 по сезону 1005.7 995.3 0.1
ЮВ 2-4
{4}
2200 м в посл. час туман {ливн. осадки, дождь} 10/0 50 м
[]
+3.8 +3.7 99 +1 +1 по сезону 1005.8 995.4 +2.6 +3.9 0.1 9
ЮВ 2-3
{5}
4400 м дымка 10/0 50 м
[]
+4.2 +4.1 99 +1 +1 по сезону 1006.1 995.7
ЮВ 2-3
{5}
2100 м дымка 10/0 50 м
[]
+4.3 +4.2 99 +1 +1 по сезону 1006.2 995.8
ЮВ 2-3
{4}
1400 м дымка 10/0 <50 м
[]
+4.5 +4.4 99 +2 +2 по сезону 1006.0 995.6
В 2-4
{4}
2100 м дождь 10/0 <50 м
[]
+4.6 +4.5 99 +2 +2 по сезону 1005.5 995.1 0.5
В 3-5
{5}
2200 м сильн. дождь 9/9 <50 м
[]
+5.0 +4.9 99 +1 +1 по сезону 1004.8 994.4 2
ЮВ 2-4
{5}
9000 м дождь {туман} 10/10 50 м
[]
+5.9 +5.8 99 +3 +3 по сезону 1005.1 994.8 3
ЮВ 3-6
{8}
2500 м в посл. час морось 10/0 50 м
[]
+6.0 +5.9 99 +3 +3 по сезону 1004.7 994.4 0.3
ЮВ 3-6
{7}
1700 м дымка 10/0 50 м
[]
+6.0 +5.8 99 +3 +3 по сезону 1004.7 994.4 0.1
ЮВ 3-7
{7}
2800 м морось {дождь} 10/10 50 м
[]
+6.0 +5.8 99 +3 +3 по сезону 1004.7 994.3 0.3
ЮВ 4-7
{8}
3500 м слаб. ливневой дождь 9/0 50 м
[]
+6.0 +5.8 99 +2 +2 по сезону 1004.6 994.3 0.2
ЮВ 3-8
{9}
2800 м дымка 10/0 50 м
[]
+6.2 +6.0 99 +3 +3 по сезону 1004.5 994.2 0.1
ЮВ 3-6
{7}
4400 м морось {ливн. осадки, дождь} 10/10 50 м
[]
+6.6 +6.4 99 +3 +3 по сезону 1004.4 994.1 +3.7 +6.6 0.2
ЮВ 4-7
{7}
5000 м дымка 9/9 50 м
[]
+6.9 +6.5 97 +3 +3 по сезону 1004.1 993.8
Ю 3-5
{7}
6000 м осадки 10/10 200 м
[]
+7.1 +6.5 96 +4 +4 по сезону 1004.1 993.9
Ю 3-7
{9}
4300 м слаб. дождь 10/10 100 м
[]
+6.7 +6.1 96 +3 +3 по сезону 1004.6 994.3 0.2
З 6-11
{11}
8000 м слаб. морось 10/10 100 м
[]
+3.5 +2.5 93 -2 -2 по сезону 1007.0 996.6 0.2
З 4-8
{11}
22 км в посл. час морось 10/10 200 м
[]
+2.0 +1.2 94 -3 -3 прохладно 1009.9 999.3
З 4-8
{11}
50 км {ливн. осадки, дождь} 10/10 200 м
[]
+1.8 +1.0 94 -3 -3 прохладно 1012.4 1001.8
З 4-7
{10}
50 км в посл. час морось 10/10 200 м
[]
+2.2 +1.1 92 -3 -3 прохладно 1014.7 1004.1
З 4-8
{10}
50 км 10/10 200 м
[]
+2.4 +1.3 92 -3 -3 прохладно 1016.5 1005.9
З 3-7
{8}
28 км морось {ливн. осадки} 10/10 200 м
[]
+2.3 +1.1 92 -2 -2 по сезону 1018.0 1007.4
З 4-7
{10}
26 км слаб. ливневой дождь 9/9 300 м
[]
+1.9 +0.3 89 -3 -3 прохладно 1019.3 1008.7
З 2-4
{9}
50 км в посл. час дождь 9/0 600 м
[]
+1.5 +0.2 91 -2 -2 по сезону 1020.2 1009.6
З 2-4
{5}
17 км ливневой дождь {морось} 9/9 200 м
[]
+1.3 +0.1 92 -2 -2 по сезону 1021.6 1010.9 +1.3 +7.2 2
З 2-5
{6}
50 км 9/9 300 м
[]
+1.4 -0.6 87 -2 -2 по сезону 1022.4 1011.8
З 1-2
{6}
50 км 9/9 300 м
[]
+1.4 -0.2 89 -1 -1 по сезону 1023.4 1012.7
ЮЗ 2-4
{5}
45 км {ливн. осадки} 9/9 300 м
[]
+1.5 -0.4 87 -2 -2 по сезону 1024.2 1013.5
З 1-3
{5}
40 км слаб. дождь 9/9 200 м
[]
+1.2 -0.2 90 -1 -1 по сезону 1024.7 1013.9
З 3-6
{6}
50 км в посл. час осадки 9/0 300 м
[]
+1.2 -1.0 85 -3 -3 прохладно 1025.3 1014.6
ЮЗ 2-5
{6}
50 км {ливн. осадки, дождь} 9/9 300 м
[]
+1.4 -0.9 85 -2 -2 по сезону 1025.5 1014.8
З 2-5
{5}
50 км 9/0 300 м
[]
+1.3 -1.2 83 -2 -2 по сезону 1026.3 1015.6
З 2-4
{4}
50 км 9/0 300 м
[]
+1.2 -1.1 85 -2 -2 по сезону 1026.4 1015.7
З 1-3
{4}
50 км 9/0 300 м
[]
+1.2 -1.1 85 -1 -1 по сезону 1026.6 1015.8
З 1-3
{3}
50 км 9/0 300 м
[]
+1.2 -1.0 85 -1 -1 по сезону 1026.8 1016.1
ЮЗ 1-2
{3}
50 км 9/0 300 м
[]
+0.9 -0.7 89 -1 -1 по сезону 1027.0 1016.3
ЮЗ 2-3
{3}
50 км 9/0 300 м
[]
+1.2 -1.0 85 -2 -2 по сезону 1027.2 1016.5 +0.7 +1.7
Ю 1-2
{3}
50 км 9/0 300 м
[]
+1.3 -1.3 83 -1 -1 по сезону 1027.0 1016.2
Ю 1-3
{3}
50 км 9/0 300 м
[]
+0.7 -1.0 88 -1 -1 по сезону 1027.0 1016.3
ЮЗ 2-4
{4}
50 км 9/0 300 м
[]
+0.7 -1.8 83 -3 -3 прохладно 1026.9 1016.1
ЮЗ 2-3
{4}
50 км 9/0 300 м
[]
+0.5 -1.8 85 -3 -3 прохладно 1027.0 1016.3
З 1-2
{3}
50 км 9/0 300 м
[]
+0.1 -1.7 88 -2 -2 по сезону 1026.5 1015.7
ЮВ 1-3
{3}
50 км 9/0 200 м
[]
+0.1 -1.8 87 -2 -2 по сезону 1026.4 1015.6
Местоположение метеостанции Куопио Савилахти (Финляндия): широта 62.89 долгота 27.63 высота над уровнем моря 87 м.
В архиве по умолчанию представлена погода в Куопио Савилахти за последнюю неделю. Архивные данные за месяц целиком и за предыдущие месяцы, начиная с января 2011 года, Вы можете получить, выбрав интересующий диапазон дат из раскрывающегося списка и нажав кнопку "Найти!".
*Определитесь, кто Вы:
Внимание! Время в таблицах - всемирное. Для получения местного времени необходимо прибавить поправку, которая равна 1 ч.
Смотрите также архив погоды в соседних городах и на ближайших метеорологических станциях:
Партнеры нашего сайта:      
Пояснения к столбцам:
  • Ветер - указаны скорость ветра в м/с - средняя за 10 мин, порывы в срок и между сроками (в фигурных скобках) и направление, откуда дует ветер: С - северный,
  • СВ - северо-восточный, В - восточный, ЮВ - юго-восточный, Ю - южный, ЮЗ - юго-западный, З - западный, СЗ - северо-западный.
  • Видимость - горизонтальная дальность видимости в метрах или километрах. При видимости от 1 до 10 км при отсутствии осадков обычно наблюдается дымка, при ухудшении видимости до 1 км и менее - туман. В сухую погоду видимость может ухудшаться дымом, пылью или мглою.
  • Явления - указаны атмосферные явления, наблюдавшиеся в срок или в последний час перед сроком; фигурными скобками обозначены явления, наблюдавшиеся между сроками (за 1-3 часа до срока); квадратными скобками обозначены град или гололедные отложения с указанием их диаметра в мм.
  • Облачность - указаны через наклонную черту общая и нижняя облачность в баллах и высота нижней границы облаков в метрах; квадратными скобками обозначены формы облаков: Ci - перистые, Cs - перисто-слоистые, Cc - перисто-кучевые, Ac - высококучевые, As - высокослоистые, Sc - слоисто-кучевые, Ns - слоисто-дождевые, Cu - кучевые, Cb - кучево-дождевые. Подробнее классификацию облаков см. в Атласе облаков (PDF).
  • T - Температура воздуха - температура, измеренная на высоте 2 м над землей.
  • Td - Температура точки росы - температура, при понижении до которой содержащийся в воздухе водяной пар достигнет насыщения.
  • f - Относительная влажность воздуха - влажноcть воздуха, измеренная на высоте 2 м над землей.
  • Te - Эффективная температура - температура, которую ощущает одетый по сезону человек в тени. Характеристика душности погоды. При расчете учитывается влияние влажности воздуха и скорости ветра на теплоощущения человека.
  • Tes - Эффективная температура на солнце - температура, которую ощущает человек, с поправкой на солнечный нагрев. Характеристика знойности погоды. Зависит от высоты солнца над горизонтом, облачности и скорости ветра. Ночью, в пасмурную погоду, а также при ветре 12 м/с и более поправка равна нулю.
  • P - Атмосферное давление - приведенное к уровню моря атмосферное давление.
  • Po - Атмосферное давление - измеренное на уровне метеостанции атмосферное давление.
  • Tmin - Минимальная температура - минимум температуры воздуха на высоте 2 м над землей.
  • Tmax - Максимальная температура - максимум температуры воздуха на высоте 2 м над землей.
  • R - Количество осадков - Количество выпавших осадков за период времени, мм. При наведении курсора мыши на число - период времени, за который выпало указанное количество осадков.
  • R24 - Количество осадков - Количество выпавших осадков за 24 часа, мм.
  • S - Снежный покров - Высота снежного покрова, см. При наведении курсора мыши на число - состояние снежного покрова и степень покрытия местности в баллах.